Ann Arbor, MI

1:28 PM EST on November 17, 2017 (GMT -0500)
Ann Arbor Municipal

Weather History for KARB - February, 2014

Change the Weather History Date:

Friday, February 7, 2014

  Actual Average Record
Temperature  
Mean Temperature 4 °F -  
Max Temperature 12 °F 30 °F 53 °F (2017)
Min Temperature -4 °F 15 °F -4 °F (2007)
Degree Days  
Heating Degree Days 61    
Moisture  
Dew Point -6 °F    
Average Humidity 70    
Maximum Humidity 79    
Minimum Humidity 54    
Precipitation  
Precipitation 0.00 in - - ()
Sea Level Pressure  
Sea Level Pressure 30.34 in    
Wind  
Wind Speed 8 mph (SW)    
Max Wind Speed 17 mph    
Max Gust Speed 21 mph    
Visibility 10 miles    
Events      
Averages and records for this station are not official NWS values.
T = Trace of Precipitation, MM = Missing Value Source: NWS Daily Summary

Daily Weather History Graph

Daily Weather History Graph

Search for Another Location

Airport or City:

Trip Planner

Search our weather history database for the weather conditions in past years. The results will help you decide how hot, cold, wet, or windy it might be!

Date:

Astronomy

Feb. 07, 2014 Rise Set
Actual Time 7:41 AM EST 5:57 PM EST
Civil Twilight 7:12 AM EST 6:26 PM EST
Nautical Twilight 6:39 AM EST 6:59 PM EST
Astronomical Twilight 6:06 AM EST 7:32 PM EST
Moon 12:06 PM EST (2/7) 1:57 AM EST (2/7)
Length of Visible Light 11h 14m
Length of Day
10h 15m
First Quarter, 59% of the Moon is Illuminated
Feb 7
First Quarter
Feb 14
Full
Feb 22
Last Quarter
Mar 1
New
Mar 8
First Quarter

Hourly Weather History & Observations

Time (EST) Temp. Windchill Dew Point Humidity Pressure Visibility Wind Dir Wind Speed Gust Speed Precip Events Conditions
12:53 AM 1.9 °F -10.6 °F -5.1 °F 72% 30.35 in 10.0 mi WSW 6.9 mph - N/A   Mostly Cloudy
1:53 AM -0.0 °F -15.3 °F -6.0 °F 76% 30.34 in 10.0 mi WSW 9.2 mph - N/A   Scattered Clouds
2:28 AM -0.4 °F -12.0 °F -5.8 °F 78% 30.28 in 10.0 mi SW 5.8 mph - N/A   Mostly Cloudy
2:53 AM 1.0 °F -10.3 °F -6.0 °F 72% 30.33 in 10.0 mi WSW 5.8 mph - N/A   Overcast
3:53 AM 1.0 °F -11.7 °F -5.1 °F 75% 30.33 in 10.0 mi SW 6.9 mph - N/A   Overcast
4:22 AM 1.4 °F -11.3 °F -5.8 °F 72% 30.26 in 10.0 mi SW 6.9 mph - N/A   Overcast
4:53 AM 1.0 °F -11.7 °F -5.1 °F 75% 30.33 in 10.0 mi WSW 6.9 mph - N/A   Overcast
5:01 AM 1.4 °F -9.9 °F -5.8 °F 72% 30.27 in 10.0 mi SSW 5.8 mph - N/A   Overcast
5:10 AM -0.4 °F -12.0 °F -5.8 °F 78% 30.27 in 10.0 mi South 5.8 mph - N/A   Overcast
5:53 AM -2.0 °F -12.2 °F -7.1 °F 79% 30.34 in 10.0 mi South 4.6 mph - N/A   Overcast
6:13 AM -2.2 °F -12.5 °F -7.6 °F 78% 30.27 in 10.0 mi SSW 4.6 mph - N/A   Overcast
6:53 AM -2.9 °F -13.3 °F -8.0 °F 79% 30.34 in 10.0 mi SSW 4.6 mph - N/A   Scattered Clouds
7:53 AM -4.0 °F -19.0 °F -9.0 °F 79% 30.36 in 10.0 mi SW 8.1 mph - N/A   Overcast
8:53 AM -2.9 °F -16.5 °F -9.0 °F 75% 30.37 in 10.0 mi SW 6.9 mph - N/A   Mostly Cloudy
9:53 AM -0.9 °F -16.4 °F -7.1 °F 75% 30.38 in 10.0 mi SW 9.2 mph - N/A   Mostly Cloudy
10:53 AM 1.0 °F -14.9 °F -6.0 °F 72% 30.38 in 10.0 mi SW 10.4 mph - N/A   Partly Cloudy
11:53 AM 3.9 °F -12.2 °F -4.0 °F 70% 30.37 in 10.0 mi South 11.5 mph - N/A   Clear
12:53 PM 7.0 °F -8.3 °F -2.9 °F 64% 30.35 in 10.0 mi SW 11.5 mph - N/A   Clear
1:53 PM 10.9 °F -5.4 °F -0.9 °F 59% 30.33 in 10.0 mi WSW 15.0 mph 20.7 mph N/A   Clear
2:53 PM 12.0 °F -5.1 °F -0.9 °F 56% 30.32 in 10.0 mi West 17.3 mph - N/A   Clear
3:53 PM 10.9 °F -5.4 °F -2.9 °F 54% 30.34 in 10.0 mi WSW 15.0 mph - N/A   Clear
4:53 PM 10.0 °F -5.9 °F -2.9 °F 56% 30.34 in 10.0 mi West 13.8 mph - N/A   Clear
5:53 PM 8.1 °F -7.0 °F -5.1 °F 55% 30.35 in 10.0 mi WSW 11.5 mph - N/A   Clear
6:53 PM 6.1 °F -7.8 °F -6.0 °F 58% 30.37 in 10.0 mi SW 9.2 mph - N/A   Clear
7:53 PM 5.0 °F -9.1 °F -6.0 °F 61% 30.37 in 10.0 mi SW 9.2 mph - N/A   Clear
8:53 PM 1.9 °F -11.8 °F -7.1 °F 66% 30.38 in 10.0 mi WSW 8.1 mph - N/A   Clear
9:53 PM 1.0 °F -14.0 °F -7.1 °F 69% 30.37 in 10.0 mi SW 9.2 mph - N/A   Clear
10:53 PM -0.9 °F -15.3 °F -8.0 °F 72% 30.37 in 10.0 mi SW 8.1 mph - N/A   Clear
11:53 PM -2.0 °F -13.9 °F -9.0 °F 72% 30.36 in 10.0 mi SW 5.8 mph - N/A   Clear